Tracking 18673 objects as of 28-June-2017
HD Live streaming from Space Station
objects crossing your sky now

BEESAT

Track BEESAT now!
10-day predictions
BEESAT is classified as:


NORAD ID: 35933
Int'l Code: 2009-051C
Perigee: 709.3 km
Apogee: 716.4 km
Inclination: 98.5 °
Period: 98.9 minutes
Semi major axis: 7083 km
RCS: 0.033 m2 (small)
Launch date: September 23, 2009
Source: Germany (GER)
Launch site: SIRHARIKOTA (SRI)
Uplink (MHz):
Downlink (MHz): 436.000
Beacon (MHz): 436.000
Mode: 9600/4800bps GMSK
Call sign: DP0BEE
Status: Active


BEESAT is a a cubesat satellite built by student teams to test new attitude control systems.
Your satellite tracking list
Your tracking list is empty





NASA's NSSDC Master Catalog

Two Line Element Set (TLE):
1 35933U 09051C   17178.84190377 +.00000092 +00000-0 +31801-4 0  9999
2 35933 098.5009 318.8549 0005022 222.0615 138.0197 14.56138269411898
Source of the keplerian elements: Caltech